Theta_e
324 322 318 316 321 318 312 304 296 295 297 290 289 291 290 294 291 291 290 293 290 292 295 292 292 294 293 291 290 288 291 288 288 284 283 291 302 305 305 303 304 304 304 304 306 311 315 320 319 320 321 322 321 321 321 320 320 321 321 322 322 323 323 323 323 324 324 324 323 324 324 324 323 323 323 322 323 324 325 327 328 329 329 330 330 331 331 331 329 330 331 333 333 332 331 331 330
323 321 315 316 317 312 305 301 292 292 290 287 290 290 290 289 292 288 288 289 289 294 292 292 291 290 291 290 290 290 291 291 293 294 296 302 300 302 303 304 304 303 303 303 304 307 308 314 320 321 323 322 321 321 321 319 319 321 321 321 321 322 322 323 323 323 323 323 323 323 323 323 323 322 321 322 322 323 325 327 328 329 329 329 330 330 330 329 330 330 331 331 331 331 331 331 329
327 318 313 316 313 310 306 299 295 288 288 286 285 287 292 290 291 290 289 290 292 293 291 292 292 291 292 291 290 289 285 295 295 297 297 300 300 300 302 303 303 303 303 302 304 304 305 313 319 321 322 322 321 321 320 319 320 320 319 319 320 321 322 322 322 322 322 322 322 321 322 322 322 321 321 321 322 323 325 326 327 327 327 328 329 329 329 330 330 330 330 331 330 331 330 330 330
318 319 314 310 306 304 297 295 291 288 288 284 284 287 290 290 290 290 291 291 292 292 293 295 291 293 291 289 292 293 290 293 294 295 296 297 299 301 303 303 305 302 302 303 301 302 304 316 319 320 322 322 321 320 319 319 319 320 318 318 319 321 321 321 321 321 321 321 321 321 321 321 320 321 320 320 320 322 325 326 326 327 327 328 328 328 329 329 330 330 330 330 330 330 329 329 329
314 318 317 310 304 301 298 293 292 289 288 286 285 286 290 290 291 291 292 292 291 292 293 293 292 295 293 294 294 291 288 292 295 295 296 298 298 302 302 303 303 302 301 301 301 302 302 321 319 319 321 321 321 320 320 319 319 319 318 318 318 319 320 320 320 320 320 320 320 321 320 320 320 319 320 319 319 322 325 325 326 326 327 327 327 328 328 329 330 330 330 329 328 329 329 329 328
318 316 317 313 304 305 298 294 291 289 292 289 290 288 289 291 292 291 292 292 293 292 293 292 293 293 295 292 292 292 291 295 294 296 296 298 299 303 302 307 302 301 301 300 301 302 301 322 320 320 320 321 321 321 319 319 318 318 317 317 317 318 319 319 319 319 319 319 319 319 319 319 318 319 319 319 319 321 324 325 325 326 326 326 327 327 329 331 330 329 328 327 327 327 328 328 327
315 308 308 306 306 302 292 290 289 290 294 293 288 288 292 292 292 291 292 293 294 295 294 294 292 291 290 290 295 294 293 298 296 297 298 298 300 301 303 303 302 300 300 300 301 302 303 322 320 320 319 319 321 320 321 320 319 318 317 317 317 318 319 319 318 318 319 319 319 318 318 318 318 318 318 318 318 319 321 324 325 325 326 326 327 327 329 330 327 327 327 326 326 327 327 327 326
315 306 305 296 295 296 292 288 289 289 290 294 290 292 292 293 292 291 292 290 290 292 293 292 291 290 287 295 290 292 295 298 297 297 297 299 300 301 303 302 301 300 300 299 301 303 312 322 320 319 318 318 318 319 320 321 319 318 317 317 316 316 317 318 318 318 318 317 318 317 317 317 318 318 318 317 319 319 319 322 324 325 325 326 326 328 330 329 326 325 325 325 326 326 326 326 325
308 307 306 298 295 293 289 290 290 292 291 292 293 293 299 294 294 293 291 292 293 292 293 293 290 289 285 292 289 291 294 297 298 303 299 299 300 301 302 301 301 300 300 299 301 305 310 323 320 319 318 317 317 318 318 319 319 318 317 316 316 316 316 317 317 317 317 317 317 316 316 317 317 318 318 318 318 317 318 321 323 325 325 326 327 328 329 328 325 324 325 325 324 326 325 326 325
305 305 298 295 292 291 286 287 290 291 293 292 292 296 295 294 293 293 292 292 293 292 292 291 289 288 289 289 289 293 295 299 298 297 298 299 300 300 300 301 301 301 301 299 302 306 309 321 322 319 318 317 317 317 317 318 318 319 318 316 315 315 316 316 316 316 316 316 315 315 315 316 317 317 318 317 317 314 317 320 323 325 325 326 327 328 329 328 324 324 324 325 324 325 325 325 325
298 301 301 296 291 287 287 286 286 290 289 291 292 295 295 293 294 293 292 292 292 291 291 290 291 288 288 289 289 291 295 297 297 297 297 298 299 298 299 300 301 302 301 301 304 306 309 312 323 321 319 318 317 317 317 318 319 318 318 316 315 315 315 315 315 315 315 315 315 315 315 316 317 317 317 316 315 313 315 317 318 320 322 324 326 328 328 328 326 323 324 325 324 325 325 326 325
298 297 299 289 287 288 287 287 287 289 290 291 294 294 294 294 293 292 291 292 289 289 291 290 290 289 290 288 288 292 297 296 297 298 298 298 298 298 299 298 301 301 302 302 305 304 305 309 314 321 322 320 319 318 318 318 318 319 318 316 315 314 314 314 314 314 314 314 314 314 315 316 317 317 316 316 314 313 314 315 316 318 320 322 325 327 327 328 328 324 324 326 326 324 326 325 325
297 296 291 290 285 288 289 289 289 291 289 289 291 295 294 293 293 291 290 290 289 289 290 292 292 291 289 288 287 293 296 297 297 297 298 298 298 297 299 300 302 302 302 304 303 303 304 306 309 311 316 323 322 321 319 318 318 319 318 316 315 314 313 313 313 313 313 313 313 314 315 316 317 316 315 315 313 313 313 314 314 317 320 323 325 326 326 327 327 326 324 325 325 325 325 326 326
300 296 293 290 288 288 290 288 286 290 288 289 290 291 292 295 293 293 289 290 288 289 291 293 292 291 289 290 287 291 294 296 296 297 298 298 299 298 299 300 301 302 303 303 303 303 303 305 307 307 311 314 311 318 321 320 320 320 318 316 315 313 313 313 313 312 312 313 313 314 315 315 316 315 314 314 314 313 314 313 314 317 320 322 325 325 326 327 327 327 324 325 324 325 326 325 325
302 298 292 289 288 286 286 290 290 288 287 289 292 292 292 295 293 290 292 290 291 291 294 293 292 291 286 290 287 290 295 296 296 298 299 299 300 299 299 300 302 301 302 302 302 302 303 303 305 304 308 309 308 309 308 313 321 321 318 317 315 314 313 313 313 312 312 313 313 314 315 316 315 314 314 315 315 315 314 314 315 316 318 321 324 324 325 327 327 326 326 324 326 326 326 325 325
300 295 291 291 286 287 288 289 289 289 287 289 290 290 291 291 293 295 294 293 292 293 294 292 294 291 288 289 288 288 295 295 296 298 299 299 299 299 299 299 299 300 301 301 301 302 303 302 302 304 306 307 306 306 307 307 319 321 319 318 316 314 314 314 313 313 314 315 316 316 317 314 312 307 313 309 314 315 314 314 315 315 317 319 322 324 324 325 326 327 327 326 325 326 326 325 324
298 295 293 284 287 286 288 289 289 286 287 287 289 291 291 291 293 293 292 293 292 292 293 291 294 294 289 290 291 292 293 298 301 299 299 298 298 297 298 298 299 299 303 301 301 302 301 302 301 302 305 306 305 304 304 304 307 320 319 319 318 317 316 316 316 316 317 317 316 314 315 305 302 301 301 302 312 307 315 315 315 315 316 317 321 323 322 323 324 326 327 326 326 326 324 322 322
298 295 287 286 285 287 288 290 287 290 289 289 290 288 290 289 290 293 292 291 290 289 290 291 291 291 291 291 294 295 297 298 299 298 297 297 296 296 296 297 298 299 300 301 301 301 301 301 301 302 304 305 304 305 306 305 306 317 308 306 308 311 316 318 312 308 314 305 311 309 303 304 303 300 302 308 304 306 306 313 314 314 314 315 318 320 321 322 323 325 326 326 326 324 321 314 315
296 288 288 289 285 289 289 289 287 290 288 289 288 289 290 289 290 291 291 287 288 289 290 290 292 293 292 294 295 296 297 297 298 298 297 297 296 297 297 298 298 298 298 299 301 302 301 302 301 302 302 304 303 303 306 306 304 307 306 304 303 312 310 309 307 307 304 301 301 301 305 301 300 301 302 308 309 311 306 311 312 312 311 312 315 317 318 319 321 322 324 325 324 322 315 314 314
293 291 287 287 289 289 288 289 290 290 292 290 290 290 288 290 290 291 289 286 285 287 289 287 289 292 293 291 294 295 296 297 298 297 297 297 297 297 297 297 298 298 299 300 301 303 301 301 302 302 303 302 302 303 305 305 304 305 305 303 302 302 304 306 304 303 301 300 301 301 302 300 301 299 307 309 308 300 301 305 308 308 308 308 312 310 313 314 317 318 320 322 320 317 314 315 317
292 292 288 289 288 290 290 289 289 289 290 291 289 289 289 288 288 290 287 288 288 290 290 292 291 292 293 292 294 294 295 296 296 297 297 297 297 298 298 299 299 300 300 300 300 302 301 301 302 301 303 302 301 302 304 302 303 302 302 302 301 301 300 301 302 301 300 301 301 301 300 301 298 298 298 298 299 299 298 299 299 298 298 298 309 303 305 306 308 309 313 317 317 317 317 316 317
292 292 288 290 288 291 288 288 289 289 289 289 289 289 290 290 291 288 288 288 290 287 290 292 293 292 291 291 293 294 295 296 296 296 296 297 297 297 297 297 297 297 298 298 299 300 301 302 302 302 302 301 302 302 304 303 304 300 300 300 300 299 300 299 299 299 300 301 299 300 302 297 298 298 297 297 299 299 298 298 298 298 297 298 302 301 302 303 304 308 311 314 316 318 319 318 316
290 288 287 288 287 291 290 289 289 287 289 288 288 289 290 289 289 287 288 290 293 287 288 289 292 293 292 292 294 294 295 295 296 296 297 296 297 297 298 298 298 298 298 299 299 299 301 301 302 301 302 301 301 301 303 302 302 300 300 299 299 298 298 298 298 298 299 299 299 301 300 298 297 297 298 297 298 298 299 298 297 297 297 297 300 300 300 301 303 307 309 311 315 318 319 319 319
291 290 287 290 287 290 289 290 288 286 288 288 288 290 289 288 287 287 288 293 295 293 288 289 289 289 289 290 293 295 295 296 296 297 298 298 298 298 299 299 299 298 297 299 298 299 302 301 302 301 302 302 301 300 300 300 299 298 299 304 302 301 300 298 298 298 299 299 300 300 302 297 298 297 297 297 298 297 298 298 297 296 297 297 299 300 299 299 302 305 307 307 312 315 318 319 319
289 289 288 289 289 287 288 287 287 286 287 286 288 288 289 288 287 286 290 293 293 294 293 290 289 290 289 290 291 294 295 295 296 297 297 297 298 299 299 299 299 297 298 298 298 299 300 302 301 302 302 302 301 300 300 298 297 299 300 300 297 305 297 297 298 299 298 300 301 300 301 298 297 297 297 297 297 298 298 298 297 296 297 297 299 298 299 299 301 303 305 304 308 312 316 318 319
289 289 289 288 289 289 288 288 286 287 288 289 289 288 288 288 287 287 292 294 294 292 291 293 290 289 290 291 291 293 294 294 295 295 297 298 298 298 299 299 299 297 299 298 297 299 300 301 301 302 302 302 301 300 300 298 298 299 299 298 297 303 298 297 299 298 297 300 299 299 301 298 298 298 298 296 297 298 297 298 297 296 297 297 298 298 298 298 300 301 303 302 304 307 312 316 318
289 288 287 289 289 289 289 289 288 287 289 289 289 287 286 288 288 288 289 291 290 290 291 290 290 291 291 291 291 292 293 294 294 296 296 296 297 298 299 299 299 299 298 297 297 299 301 300 301 302 301 304 301 300 299 299 300 298 300 299 298 300 298 299 299 298 297 299 300 299 299 302 297 297 297 297 298 297 297 297 296 296 297 298 298 298 299 299 300 300 302 301 301 303 306 313 316
289 289 287 288 287 286 288 288 287 288 289 288 289 288 287 287 287 288 293 289 289 289 289 289 289 291 292 291 291 292 293 294 294 294 295 295 296 298 298 299 300 299 298 298 298 299 300 301 302 301 301 303 302 301 302 300 299 299 300 298 299 299 299 298 299 298 300 298 299 298 298 299 301 297 298 298 298 297 297 296 296 297 297 297 298 297 298 299 300 299 301 300 299 300 302 307 313
289 289 287 284 286 288 287 289 288 288 289 288 289 286 285 285 285 292 293 291 291 289 288 288 289 291 291 291 291 290 292 293 293 294 295 297 297 299 299 300 301 300 300 299 298 300 301 301 301 301 301 302 301 301 301 300 300 299 300 299 300 301 300 298 297 298 297 298 298 298 298 300 300 298 298 298 300 296 296 296 297 297 297 298 298 297 297 298 300 299 300 299 300 300 301 303 310
289 288 286 286 284 283 285 288 287 288 290 288 288 281 283 283 290 292 291 289 289 289 290 289 289 290 290 290 290 291 290 290 291 294 296 296 297 298 299 300 301 301 300 298 297 300 302 303 304 302 301 302 301 300 300 299 299 299 301 299 300 300 297 297 299 296 297 297 298 298 298 300 298 298 297 297 297 296 295 296 296 297 297 297 297 297 297 297 298 298 298 297 300 299 299 300 304
286 284 286 282 282 280 284 287 287 288 289 288 288 282 286 285 287 288 288 288 288 289 290 290 289 289 289 289 290 291 291 291 293 293 294 297 298 299 300 300 300 300 299 297 299 301 302 303 304 303 303 301 302 300 301 300 299 300 299 298 300 299 297 297 296 296 296 298 298 298 298 300 299 299 298 297 297 296 295 295 297 296 297 297 296 296 296 297 297 298 297 296 296 297 298 300 300
285 283 279 279 281 280 283 288 287 287 289 287 287 281 285 288 290 290 288 289 288 288 290 290 289 289 290 289 289 290 292 292 292 292 292 296 298 299 300 300 300 299 299 299 299 301 302 302 303 302 302 300 300 301 300 300 300 299 299 301 299 297 297 297 296 296 298 297 297 297 298 300 299 298 298 297 297 296 296 296 297 296 297 297 297 296 297 297 297 297 297 295 295 296 297 298 299
282 283 279 281 281 280 284 288 287 289 289 289 287 284 283 286 286 289 290 290 289 288 290 290 290 290 290 290 290 291 291 291 291 292 292 293 297 299 300 301 300 300 299 299 299 300 301 301 303 302 301 300 300 300 299 298 299 298 297 300 298 297 297 296 295 297 298 297 296 296 297 299 297 298 298 297 297 296 296 296 296 296 297 296 296 296 296 297 296 297 296 296 294 294 295 297 299
278 281 280 281 282 281 281 284 289 289 289 286 287 283 285 288 288 289 289 291 288 289 291 291 291 291 291 291 291 291 291 292 292 293 293 293 295 298 300 302 301 300 299 299 300 301 302 301 302 302 302 301 301 300 299 299 298 298 298 298 299 297 296 296 297 297 298 296 296 296 297 298 298 297 296 297 296 298 296 296 295 296 295 296 296 296 296 295 296 294 295 295 294 294 295 297 299
280 282 281 281 282 282 284 284 287 289 289 286 285 285 287 289 290 291 292 292 290 291 292 293 293 292 292 291 291 291 292 292 293 294 294 293 294 297 299 299 299 299 299 299 300 301 301 301 301 302 301 300 300 300 298 298 298 296 296 297 296 295 295 295 296 297 296 296 295 296 297 298 299 296 296 297 296 296 295 294 295 295 295 295 296 296 296 296 296 295 294 294 294 294 294 294 297
286 282 280 280 283 282 283 284 288 288 287 285 285 286 289 290 291 293 292 291 290 292 293 293 292 292 292 292 292 292 292 293 295 294 294 293 295 297 298 297 298 298 299 299 300 300 301 301 300 301 301 300 299 299 299 298 298 298 297 296 296 297 296 297 296 298 296 296 296 296 295 295 297 297 295 295 296 296 295 295 294 295 295 295 295 296 295 295 294 294 295 293 293 295 295 296 298
287 285 285 283 282 284 284 286 287 289 288 285 288 288 288 289 290 293 294 292 290 291 292 292 293 293 293 292 292 292 292 293 295 294 294 294 294 296 297 297 297 297 298 299 300 300 301 302 301 300 301 299 300 299 299 299 298 296 295 297 296 295 297 296 296 295 296 295 295 295 295 296 295 297 297 295 295 298 294 294 294 294 295 296 295 293 293 293 294 294 294 293 293 295 295 294 294
287 285 284 283 284 282 284 289 289 287 289 284 285 286 288 290 291 293 294 292 292 292 292 292 293 293 293 293 293 293 293 292 294 292 292 292 293 295 296 297 297 297 298 299 300 301 301 302 301 301 300 299 300 301 300 300 298 299 298 297 294 294 296 297 295 295 297 297 295 295 295 294 294 295 297 296 295 294 294 294 293 294 295 295 295 294 294 296 293 293 293 294 292 293 292 292 294
286 285 282 282 281 284 285 287 287 288 288 286 285 286 290 292 293 294 293 293 294 294 294 294 294 294 293 292 292 293 291 292 290 292 292 293 294 295 296 297 297 299 299 299 300 300 300 301 301 301 300 300 300 301 300 300 298 298 297 295 297 295 294 294 294 295 295 296 294 294 294 294 294 294 295 296 294 294 293 294 293 293 294 295 294 293 292 293 292 292 291 292 293 292 292 293 293
284 283 283 281 281 284 281 283 286 288 288 286 286 286 289 292 292 290 291 291 291 291 292 294 294 294 294 294 293 293 292 291 291 291 292 292 294 295 295 296 297 297 298 298 298 299 300 301 301 299 300 300 300 300 302 300 299 297 296 297 296 296 296 295 295 294 294 295 295 293 294 293 293 293 294 294 293 293 293 294 293 293 293 294 293 292 292 292 292 292 291 292 290 291 290 293 293
279 283 280 281 282 283 283 282 285 287 285 287 286 286 287 284 284 287 290 288 289 290 288 289 292 292 293 293 292 292 293 292 292 290 290 292 293 295 296 297 296 296 298 298 299 299 300 300 300 299 300 300 300 301 301 299 299 297 297 297 297 297 297 295 295 294 293 294 293 294 294 293 293 293 293 294 294 293 292 292 293 292 293 293 293 292 292 292 291 290 291 291 289 290 291 290 293
277 280 283 281 282 285 284 284 285 282 279 283 284 282 280 283 285 286 291 287 289 288 289 292 291 290 290 293 294 292 292 291 293 292 292 293 294 295 295 295 296 296 298 299 299 300 299 299 299 298 299 299 299 299 300 300 299 298 297 297 296 294 295 294 295 296 294 294 294 292 293 292 293 292 292 293 294 293 292 292 292 293 292 294 293 292 291 291 291 292 291 290 291 290 291 289 290
280 280 284 284 282 284 284 283 283 279 280 283 285 281 280 284 288 288 287 286 289 291 287 289 289 291 290 292 293 293 293 292 291 291 291 292 293 294 295 295 296 296 297 298 298 298 298 298 299 299 299 299 299 299 299 301 298 298 298 298 298 297 296 295 293 293 295 293 293 292 292 292 292 293 292 292 292 293 292 292 292 292 292 292 293 291 291 290 291 291 292 292 290 291 289 290 290
280 283 282 283 284 285 283 283 282 280 280 282 284 280 278 282 287 287 285 288 290 288 288 289 289 289 290 291 292 292 293 292 293 293 293 294 295 295 296 296 296 297 297 297 298 297 298 298 298 298 298 299 299 299 299 300 299 298 298 297 298 297 297 297 295 294 293 294 292 292 291 291 291 291 292 291 291 292 292 292 292 292 292 291 293 290 290 290 292 292 292 291 292 291 290 291 288
282 284 284 284 285 283 282 283 281 281 280 282 281 280 280 277 284 286 288 289 287 287 287 287 288 289 289 290 292 291 292 292 293 293 294 295 295 296 296 296 296 296 295 297 298 298 298 297 298 298 298 298 299 299 300 299 300 299 299 298 297 296 295 295 294 294 294 293 292 290 291 291 291 291 290 291 290 292 293 292 291 291 291 291 291 291 289 289 289 290 290 291 290 290 290 289 289
285 283 284 282 282 282 283 280 284 279 279 279 280 280 277 277 282 287 285 286 286 287 287 288 289 289 291 292 291 291 290 290 292 293 294 295 296 296 296 295 294 295 295 296 296 297 297 297 297 297 297 298 299 299 300 299 299 299 297 296 297 295 295 293 293 293 292 292 292 291 291 291 291 290 289 289 289 290 290 291 291 291 290 291 291 289 288 289 289 289 288 289 289 290 289 290 290
285 285 285 282 281 280 279 280 280 276 274 279 280 279 279 276 282 287 285 287 287 287 287 288 291 292 291 290 290 291 291 291 291 293 292 294 294 295 294 295 295 293 293 295 296 297 297 297 297 297 298 298 299 299 299 299 298 298 297 296 296 295 294 294 293 292 292 291 292 291 291 291 290 290 289 289 289 289 290 291 290 290 291 292 291 289 288 288 288 288 288 288 288 289 288 289 289
285 285 284 282 281 279 279 272 274 274 272 277 280 281 280 276 281 284 287 288 287 290 290 291 291 291 291 292 291 290 290 290 291 291 291 292 293 293 293 294 294 294 295 295 296 296 297 297 298 297 297 298 298 299 298 298 297 297 297 296 296 296 295 295 294 293 293 292 292 291 290 290 289 289 288 288 288 288 290 289 289 289 289 288 288 288 288 288 288 287 287 287 287 286 287 288 287
284 282 279 277 275 272 272 271 274 271 272 280 279 280 280 280 286 289 289 290 291 289 291 292 291 291 290 290 291 290 290 290 291 291 291 292 293 294 294 294 294 295 296 296 297 297 297 297 298 298 298 298 298 299 298 298 297 296 296 296 296 296 295 295 295 294 293 293 292 291 290 290 289 289 288 288 287 288 289 287 288 288 288 288 287 287 286 286 286 286 286 285 285 285 286 286 286
282 281 278 274 272 268 265 262 266 269 276 280 280 281 279 282 286 290 291 294 294 292 289 290 290 291 290 290 290 290 290 291 292 292 291 292 293 294 294 295 295 296 296 297 297 297 297 298 298 298 298 298 298 298 298 298 297 297 296 296 296 296 295 295 295 295 294 294 293 292 292 291 290 289 288 288 288 288 288 288 288 287 287 287 287 286 286 285 285 285 285 285 284 284 285 285 285
282 281 281 277 270 268 269 266 272 273 273 277 277 277 275 280 286 287 289 290 289 287 287 285 287 287 287 287 288 288 288 289 290 290 292 293 293 293 294 295 295 296 296 297 297 297 297 298 297 298 298 297 297 298 298 298 298 297 297 296 296 296 296 296 296 296 295 293 292 292 291 290 290 289 288 288 287 287 287 286 286 286 286 286 286 286 287 285 285 285 284 284 284 284 284 285 284
282 282 281 279 279 275 276 268 270 269 272 273 275 278 278 284 286 290 293 288 289 289 288 287 289 287 285 287 289 290 290 290 290 290 291 292 292 293 294 294 295 296 296 297 297 297 297 298 298 298 298 297 297 297 297 298 298 297 297 296 296 296 297 296 295 294 294 294 293 292 291 290 290 289 288 287 287 287 286 286 286 285 285 285 285 285 284 284 284 284 283 283 283 284 283 283 283
282 282 278 281 279 281 273 273 272 273 270 274 274 279 282 284 288 293 288 285 288 283 285 286 287 287 284 287 288 288 290 290 290 291 292 292 291 292 294 294 295 296 296 297 297 298 298 298 297 297 297 296 296 297 298 297 297 296 296 297 296 295 295 295 295 294 294 293 293 292 291 291 290 289 288 287 286 285 285 285 284 284 284 284 284 284 284 283 283 284 283 282 282 282 283 281 281
281 279 278 282 284 281 277 273 267 265 268 272 275 276 278 279 282 287 285 285 287 286 284 283 284 283 285 289 288 289 290 291 290 291 291 292 293 294 294 295 295 296 297 297 297 297 297 298 297 297 296 296 296 296 297 297 297 296 296 296 296 296 296 295 295 294 293 293 292 291 290 290 289 288 288 287 286 285 285 286 284 283 283 283 283 283 283 283 283 282 282 282 282 282 281 281 281
283 282 283 282 275 276 274 270 269 267 266 267 273 273 276 279 284 285 288 286 289 290 289 285 286 286 288 289 288 288 288 289 290 291 292 292 293 294 294 295 295 295 296 297 297 296 296 296 296 297 297 297 297 297 297 296 296 297 297 296 296 295 295 295 295 294 293 292 292 291 290 290 289 288 287 286 285 285 284 284 283 283 283 283 282 282 283 282 282 281 281 281 280 281 280 279 279
281 283 280 278 279 273 272 276 268 271 268 267 271 271 278 282 282 283 289 289 288 288 287 288 287 287 287 288 288 288 288 290 292 292 292 293 294 294 294 295 295 295 295 295 295 295 295 296 295 295 295 294 294 294 295 295 295 296 296 295 295 295 295 295 294 293 292 292 292 291 290 289 288 288 287 286 285 285 284 283 283 283 282 282 282 282 282 282 281 281 281 280 280 280 280 279 279
279 280 276 279 277 278 279 276 275 273 264 264 266 272 276 281 286 288 290 291 289 288 289 289 288 288 287 287 288 288 289 290 292 293 293 293 293 293 294 294 295 293 293 294 295 295 296 295 295 295 295 294 294 295 295 295 295 295 295 294 294 293 293 293 293 293 293 292 291 291 290 289 288 287 286 285 285 285 284 284 283 283 282 282 282 281 281 281 281 280 280 280 279 279 279 279 279
281 282 280 282 278 276 273 276 273 270 273 271 266 276 276 282 286 290 291 291 288 287 287 289 287 287 288 288 287 287 289 290 291 292 292 293 292 293 292 291 291 292 293 294 294 294 294 295 295 295 294 294 294 294 294 295 294 294 294 294 294 293 293 292 292 292 292 291 290 290 289 288 287 287 286 285 285 284 284 283 282 282 281 281 281 281 281 281 281 280 279 280 279 279 279 278 278
Wind_Speed
5 4 4 3 0 1 1 3 1 2 1 3 2 0 1 0 1 2 0 1 1 2 1 0 1 2 1 2 3 3 2 6 7 8 4 1 1 4 5 7 6 8 9 6 5 4 5 8 9 8 7 5 5 5 3 2 1 2 3 4 4 4 4 5 5 6 6 7 8 8 9 9 10 10 10 11 12 12 12 13 13 14 16 16 18 19 20 20 20 19 20 21 21 21 22 22 22
3 4 4 1 1 1 1 1 2 2 4 3 5 0 2 2 1 4 6 6 3 1 1 1 3 4 5 4 2 1 2 3 6 1 1 1 2 2 6 9 10 11 7 6 5 4 5 5 10 8 7 6 6 5 4 2 1 1 3 3 3 4 4 4 5 5 6 7 7 8 9 9 9 10 10 11 12 12 12 12 13 14 15 17 18 19 19 19 19 20 20 21 22 22 21 23 21
2 5 4 4 2 2 0 3 1 0 1 1 5 5 1 1 2 3 7 4 2 0 1 2 1 1 1 3 1 3 4 0 0 0 1 1 6 5 5 8 9 10 10 6 5 5 4 5 10 9 8 7 6 6 4 2 2 0 2 3 3 3 4 4 5 5 6 7 7 8 9 9 10 10 11 11 11 12 12 12 13 14 15 17 18 18 19 20 21 22 22 22 22 21 21 20 21
0 2 2 2 1 3 1 2 3 4 1 4 3 3 1 4 5 4 2 3 1 1 0 1 2 1 2 0 2 1 3 1 4 5 2 5 8 7 7 8 8 7 6 6 5 5 5 6 11 10 9 7 7 6 5 4 2 1 1 3 3 4 4 4 5 5 6 6 7 8 9 9 9 10 10 11 11 11 11 12 13 13 15 16 18 18 19 20 20 22 22 22 21 21 22 21 20
1 1 1 3 2 1 1 1 1 2 2 3 1 4 3 4 6 4 2 2 3 1 0 1 1 0 1 0 0 1 4 3 1 4 1 2 1 9 8 7 7 8 7 5 6 5 5 9 11 10 9 8 7 6 5 4 3 1 0 2 3 3 4 4 5 5 6 6 7 8 9 9 9 10 10 11 11 11 11 12 12 14 15 16 17 18 19 19 21 22 21 22 21 20 21 21 19
2 3 1 1 0 2 3 1 2 3 6 4 1 3 3 5 6 6 3 3 2 1 2 2 1 2 1 2 4 1 3 1 2 1 3 6 8 10 10 7 8 8 6 6 6 5 5 10 11 11 10 9 8 7 5 4 3 2 1 2 3 3 3 4 5 5 6 7 8 8 9 9 9 10 10 11 11 11 11 12 12 14 15 16 16 17 18 22 21 20 20 20 20 19 19 20 19
0 4 2 2 1 2 4 2 4 4 8 6 3 3 7 7 5 6 2 0 2 0 2 2 1 1 1 2 1 3 3 0 3 3 6 6 9 9 10 8 8 7 7 6 6 6 7 10 12 11 10 9 8 7 6 4 4 2 1 2 3 3 4 4 5 5 6 7 8 8 9 9 9 10 10 10 11 11 11 12 13 14 15 15 16 17 20 21 19 19 19 18 18 17 18 19 19
1 2 0 1 1 1 0 2 4 5 4 6 3 5 6 7 5 5 7 3 3 4 2 1 1 1 5 0 2 2 3 0 4 3 5 10 9 9 8 8 8 6 7 5 6 5 8 12 12 12 10 9 8 8 6 5 4 2 3 3 3 3 4 4 5 5 6 7 7 8 9 9 9 9 10 10 11 12 12 12 13 13 13 14 15 17 20 19 20 18 18 17 17 18 19 19 20
2 2 0 4 1 1 1 4 5 3 6 3 4 2 2 5 9 7 5 3 1 1 1 2 3 3 2 1 3 2 4 3 1 6 9 10 11 10 8 8 9 7 6 6 5 5 6 9 12 11 10 9 9 7 6 6 4 4 4 3 3 3 4 4 5 5 6 7 7 8 9 9 9 9 10 10 11 12 13 12 11 12 12 13 15 18 20 20 17 17 17 17 17 17 18 19 19
1 2 1 2 2 2 2 7 0 3 3 3 3 2 4 4 5 4 6 1 4 2 3 1 1 3 1 3 3 2 1 1 4 5 6 9 10 8 8 9 9 10 6 5 5 6 6 8 12 11 10 9 9 8 7 6 6 5 5 4 4 3 4 4 5 6 6 6 7 8 8 9 9 10 10 10 10 12 12 12 11 12 12 14 16 19 19 20 17 17 17 18 17 17 19 20 18
0 3 1 1 1 2 4 6 4 6 3 3 2 1 3 4 4 2 3 2 1 3 0 4 1 5 0 3 4 2 2 5 8 10 7 7 7 8 8 7 7 9 9 6 6 5 5 5 10 11 10 10 9 9 8 7 7 6 6 5 4 4 4 4 5 6 6 6 7 8 9 9 9 10 10 10 10 11 12 12 12 13 14 15 16 18 18 20 18 16 16 17 17 17 19 19 18
1 1 0 2 3 5 5 3 3 7 5 2 1 1 1 5 2 1 3 2 3 1 4 7 2 5 1 2 2 2 2 5 7 8 7 5 7 7 7 5 6 6 9 8 6 6 5 5 5 7 10 10 9 9 8 8 7 7 6 5 5 4 4 4 5 5 6 6 7 8 9 10 10 10 10 10 9 10 13 13 13 14 14 15 14 15 17 19 20 17 16 17 19 16 18 19 20
2 1 5 3 4 2 2 1 6 2 3 4 4 1 0 4 4 4 4 1 2 3 4 10 1 2 2 2 2 2 4 9 5 6 7 6 6 4 4 5 6 6 6 7 7 6 5 5 5 4 6 9 9 8 8 8 8 7 6 6 6 5 5 4 4 5 5 6 7 8 9 10 11 10 10 10 10 10 12 13 14 15 15 13 13 15 17 18 20 18 15 16 17 17 17 19 20
3 5 5 3 0 1 1 4 1 3 4 3 1 2 1 1 2 3 3 3 5 5 3 6 0 3 3 2 5 3 7 6 5 5 4 5 4 4 5 5 5 5 5 7 7 6 5 5 4 4 4 4 4 6 7 8 8 8 7 7 6 6 5 4 4 4 5 5 6 8 9 10 11 10 9 10 10 10 12 13 14 15 15 14 13 15 16 17 20 19 16 14 15 16 17 17 18
2 1 3 1 2 1 2 3 3 2 4 1 1 1 1 3 1 2 5 4 9 5 0 3 4 4 6 7 8 6 8 8 6 4 5 4 4 5 5 5 5 5 5 6 6 6 6 5 5 4 4 4 4 4 4 5 8 8 8 7 7 7 6 5 5 4 5 6 7 8 9 10 10 9 9 10 10 10 11 12 12 14 15 14 14 15 15 16 18 19 17 16 15 16 16 16 15
3 4 2 1 3 2 5 2 0 0 4 1 2 1 1 4 1 0 3 4 1 1 1 4 1 4 1 6 3 6 7 7 5 5 6 5 3 3 4 4 5 5 5 5 5 5 5 5 4 4 4 4 4 5 4 4 6 8 8 8 8 7 7 6 6 5 6 6 7 8 8 6 6 5 9 6 8 9 10 8 11 12 14 14 15 15 15 15 17 18 18 17 16 15 15 14 14
2 4 1 1 5 3 4 2 1 3 2 2 3 1 2 2 1 1 1 0 1 3 1 2 5 0 4 5 3 2 4 7 8 5 6 4 4 4 2 2 2 2 3 4 5 6 4 5 4 4 4 5 5 4 4 4 4 7 7 8 8 8 8 8 7 6 6 6 5 6 6 4 4 4 4 4 7 4 7 7 10 12 13 14 14 15 15 15 14 15 17 18 17 16 14 14 14
2 2 2 4 4 3 4 4 4 1 0 1 1 4 3 3 1 1 1 2 1 3 4 4 4 6 3 3 1 3 5 11 8 10 7 7 5 4 5 4 4 7 6 5 4 4 4 4 5 5 4 5 5 5 3 3 3 5 5 4 4 5 6 6 5 4 5 3 5 4 4 3 3 4 4 5 3 3 5 9 9 11 13 13 13 14 14 14 14 14 15 16 16 14 13 7 7
3 1 2 8 4 6 4 2 2 1 3 2 2 1 4 6 2 1 0 3 1 5 6 3 7 8 6 1 2 6 8 9 9 9 10 10 8 10 8 7 6 4 5 5 6 6 6 6 4 5 6 6 5 4 4 4 4 4 5 4 4 5 4 4 4 4 4 3 4 4 3 3 3 3 3 4 3 5 5 8 9 10 11 12 13 12 12 14 14 13 14 13 13 12 7 6 6
3 4 5 6 6 3 3 3 3 4 1 1 2 1 4 2 2 0 2 5 2 8 7 2 7 13 12 4 3 6 7 9 9 11 11 11 10 10 8 8 7 7 8 8 9 6 6 6 6 6 7 6 6 5 4 4 4 4 5 4 5 4 4 4 4 4 4 3 4 4 3 3 3 3 4 5 5 4 5 6 8 9 10 10 13 8 10 11 13 12 13 12 7 5 5 5 5
2 2 5 3 3 2 3 4 3 3 3 1 2 0 1 4 3 2 2 2 10 13 10 11 13 16 13 8 8 5 8 9 8 9 10 10 10 8 10 11 12 10 9 6 4 6 7 7 5 6 6 6 6 6 4 5 4 4 4 4 4 4 4 4 4 4 3 4 4 4 3 2 2 3 3 3 4 4 4 4 5 5 5 5 8 6 6 7 7 6 7 7 5 6 6 5 5
3 6 4 3 1 1 5 5 4 3 2 1 0 1 4 1 1 4 4 7 14 6 9 13 13 10 7 9 10 7 10 11 11 10 12 13 13 12 7 6 4 4 2 4 8 7 7 7 7 7 5 6 7 7 7 5 4 4 4 5 4 3 3 4 3 3 4 4 3 2 1 2 2 4 3 3 3 4 4 4 5 4 4 5 5 6 6 6 6 6 6 6 5 5 5 5 5
4 2 2 4 3 3 1 3 4 4 1 3 1 3 1 1 4 3 8 15 12 4 3 7 11 12 9 8 9 10 11 13 13 14 13 11 11 10 10 8 8 8 6 8 7 7 7 6 7 6 7 6 6 5 5 4 5 6 5 4 4 4 3 2 2 4 2 1 2 2 0 1 2 3 4 3 4 3 4 4 4 4 4 5 5 5 6 5 5 6 5 6 5 5 5 6 6
1 6 0 3 3 5 4 3 5 5 5 5 2 1 2 1 7 1 6 18 18 10 4 5 7 5 4 8 11 15 16 16 17 16 15 17 15 15 13 11 10 6 5 8 7 7 7 9 8 7 7 6 6 5 5 5 5 4 5 4 4 4 2 1 2 2 1 3 3 2 1 1 1 3 3 3 4 3 4 3 3 4 3 4 5 4 5 5 6 5 5 5 6 6 5 5 6
3 4 2 2 1 4 4 3 4 4 6 2 3 3 7 5 5 5 16 18 11 14 8 8 4 2 4 7 11 13 13 12 13 11 7 7 8 8 6 7 6 5 7 8 7 7 8 9 7 8 7 7 6 6 5 6 5 4 4 4 4 3 3 2 3 1 1 3 2 2 2 1 1 1 2 3 3 3 3 3 3 4 4 4 5 5 5 5 5 5 6 5 5 6 6 6 6
4 6 0 1 2 2 2 1 4 4 2 1 1 9 7 7 6 9 26 20 12 8 7 11 6 5 7 9 10 12 13 14 13 9 14 11 6 6 8 8 6 7 10 7 7 8 7 7 8 9 9 9 8 6 6 6 5 5 5 4 5 2 4 3 2 1 2 4 3 2 1 2 1 0 0 2 3 4 3 3 3 5 4 4 5 5 5 4 5 5 6 6 5 5 6 6 5
1 1 2 3 5 2 1 5 3 3 3 2 4 6 4 1 3 12 3 9 2 3 9 7 8 12 10 7 7 9 12 14 15 13 6 6 7 9 10 8 7 9 6 7 7 8 7 7 8 8 7 7 6 7 6 6 5 5 5 5 3 4 4 2 2 1 3 3 3 3 2 1 2 1 1 1 3 3 3 3 3 3 6 5 4 5 4 4 3 4 4 5 5 5 5 5 5
0 1 3 6 6 4 4 2 5 1 3 6 5 8 4 3 0 13 19 1 2 3 6 7 8 11 11 10 8 7 9 11 10 8 14 11 12 11 10 10 11 8 9 10 8 7 7 8 9 7 8 7 8 7 6 6 6 6 5 4 5 4 3 4 1 1 3 4 3 3 2 2 1 1 1 1 2 3 3 3 3 4 5 5 4 4 5 4 3 3 3 3 3 4 5 6 5
1 0 4 6 6 6 3 8 5 5 4 4 5 4 8 4 9 21 15 3 3 3 6 6 9 11 10 8 8 7 11 8 7 10 14 14 11 10 13 11 11 10 8 9 8 7 9 9 9 8 7 7 8 8 7 6 6 4 5 5 5 4 5 3 3 2 4 3 2 2 2 1 1 1 0 1 1 2 2 3 4 3 3 4 3 3 4 5 5 6 6 4 5 6 6 6 5
1 1 2 6 5 7 6 1 2 7 2 5 3 6 10 8 18 16 6 3 4 5 9 7 7 8 8 7 8 9 7 6 9 14 12 10 10 10 12 11 11 11 9 7 6 10 8 6 7 6 6 8 8 7 6 6 5 5 5 6 4 5 4 4 2 1 1 2 2 2 2 1 1 1 1 1 1 2 2 2 3 4 3 3 3 4 5 5 5 5 5 5 5 6 6 5 5
1 2 1 3 2 5 2 1 2 5 1 6 1 4 11 7 11 10 8 2 4 7 9 8 7 7 7 7 8 10 10 9 13 12 9 9 9 9 12 10 10 10 7 6 10 10 8 8 6 6 7 8 7 7 7 6 5 6 6 5 4 5 4 3 2 3 3 4 3 2 1 1 0 0 1 1 2 2 2 2 3 3 3 2 4 4 4 4 3 4 5 5 3 5 4 5 4
0 2 4 3 4 6 5 1 6 4 1 2 3 3 13 14 15 8 3 1 4 6 9 8 7 7 7 7 8 9 12 9 10 8 10 10 9 10 11 11 10 10 11 11 9 7 9 8 7 8 7 8 8 8 7 7 7 6 6 5 5 4 4 4 4 4 4 3 3 2 1 1 0 0 1 1 2 1 0 1 1 2 3 3 4 4 4 5 4 3 4 3 5 5 5 5 5
2 3 4 2 2 5 8 0 2 1 1 0 6 8 7 10 6 2 1 1 1 5 9 9 9 9 8 7 8 8 8 8 8 11 10 9 9 8 10 10 11 12 10 9 10 8 8 8 8 8 10 10 8 6 6 5 5 5 5 5 5 4 5 4 4 5 4 4 3 3 1 1 0 0 1 1 1 1 0 0 2 2 2 3 4 4 5 4 3 3 4 4 3 4 5 4 5
4 0 4 3 1 2 3 3 1 0 2 3 2 3 11 13 10 9 9 2 4 7 13 12 10 9 9 8 8 9 9 9 12 13 13 11 10 10 9 10 11 10 9 10 11 12 12 10 9 9 9 9 8 8 7 6 5 4 4 5 4 5 4 4 5 5 5 4 3 3 1 1 0 0 1 1 1 0 1 0 1 3 3 3 4 4 5 3 3 3 3 4 4 4 5 5 5
1 1 2 5 2 3 6 3 1 1 0 4 2 7 17 19 17 17 14 9 9 14 17 15 13 11 10 9 9 10 10 10 15 12 10 11 10 10 10 9 8 9 8 9 9 9 8 8 7 7 8 7 7 6 5 5 4 3 3 4 4 3 3 2 3 5 5 4 4 2 1 1 1 1 1 1 2 1 2 1 3 3 3 3 4 4 5 4 4 4 4 4 4 4 4 3 5
1 2 2 1 3 4 2 4 1 4 2 4 6 11 13 14 16 17 8 6 9 15 15 12 12 11 10 10 11 10 11 13 13 8 7 8 10 10 10 8 8 8 8 8 9 8 9 8 6 6 7 8 6 5 6 6 6 6 5 2 3 2 3 3 1 4 4 4 3 2 2 1 1 1 1 1 2 2 3 2 2 2 3 4 4 5 5 5 4 3 4 4 4 5 5 4 4
0 1 1 4 3 7 3 4 3 0 2 8 11 11 12 16 18 19 15 6 9 13 14 14 13 12 11 11 12 13 11 16 7 6 6 8 9 9 8 8 8 7 7 9 9 9 10 11 9 10 8 7 8 7 7 7 6 4 2 6 6 5 5 3 3 3 4 4 3 3 2 1 1 1 1 2 3 3 3 2 3 3 3 4 4 3 3 3 2 1 1 3 4 6 5 3 2
2 2 2 7 1 8 4 1 1 2 0 5 3 8 14 15 17 17 14 8 16 13 13 14 15 13 11 10 13 13 12 3 1 4 6 5 6 7 7 8 8 10 8 9 12 12 10 9 11 10 7 8 8 9 9 8 6 7 7 7 4 5 5 6 3 2 4 3 3 3 2 1 2 1 1 2 2 3 3 3 3 2 3 4 3 3 3 3 4 3 1 3 3 4 3 3 3
1 3 2 3 6 5 8 2 2 1 1 9 5 9 17 17 16 17 14 14 13 8 10 12 11 12 9 8 10 10 6 8 5 7 6 7 7 8 9 9 10 13 12 12 11 9 9 9 9 8 9 9 8 8 7 7 5 4 5 4 6 3 0 1 3 3 3 4 3 2 2 2 2 2 1 1 3 2 3 4 3 2 2 2 3 4 4 5 4 3 3 3 3 3 3 3 4
3 1 1 7 3 3 6 2 3 2 2 5 7 13 17 15 11 12 14 8 7 6 6 11 10 12 13 11 8 8 9 9 8 8 10 8 8 9 7 9 11 8 9 8 8 11 9 9 8 9 9 8 9 8 8 6 5 4 3 4 3 4 4 3 3 3 3 4 3 2 2 2 2 2 1 2 2 2 3 4 3 3 3 1 4 4 4 4 4 4 3 2 2 3 3 4 4
2 3 3 3 2 2 5 4 5 6 2 0 7 10 11 3 4 7 9 2 4 5 4 7 9 10 10 8 7 8 10 9 9 6 5 6 8 11 14 12 9 10 11 12 11 11 10 12 11 10 10 10 8 8 8 6 6 5 5 5 4 5 5 3 4 2 2 3 2 2 2 1 2 2 2 2 3 3 3 4 4 3 3 2 3 4 4 3 3 2 1 3 2 4 1 1 4
3 5 8 4 1 1 2 4 6 7 3 3 4 8 6 5 4 7 12 6 9 4 6 10 8 5 4 6 9 6 7 5 10 11 12 13 13 9 6 7 10 10 11 12 12 12 9 9 8 8 7 7 9 8 8 8 8 9 7 7 6 4 4 5 8 8 6 5 6 2 1 1 2 2 2 2 2 3 4 3 4 4 3 3 3 3 3 3 4 4 2 2 3 1 4 2 2
1 3 3 2 3 1 1 3 4 3 2 1 3 2 11 5 8 6 7 6 13 9 3 8 7 6 4 7 6 6 7 5 4 4 5 6 6 7 8 10 12 12 11 8 7 8 8 9 9 9 9 8 8 8 8 8 7 8 10 10 9 9 9 6 3 3 6 4 4 4 3 1 2 3 1 2 3 3 4 3 4 4 3 3 2 3 3 3 3 3 2 4 3 3 2 4 3
3 1 2 3 2 1 1 2 2 4 2 4 1 4 4 13 9 2 4 9 10 8 7 5 3 4 6 6 7 6 6 5 6 7 8 8 10 13 15 14 11 13 10 7 8 7 9 10 9 10 8 8 8 8 9 9 10 9 8 7 8 8 9 9 7 5 3 5 5 4 4 2 1 2 3 2 3 3 4 4 4 4 4 3 3 3 3 2 3 3 4 4 4 4 4 6 3
1 2 1 1 1 1 2 1 2 1 3 9 1 1 1 6 10 3 5 8 8 6 5 3 4 5 6 7 8 8 5 5 5 7 9 11 12 11 9 11 11 7 7 9 10 10 9 8 9 8 9 8 8 9 10 9 9 10 10 9 8 6 4 4 4 4 6 5 5 3 4 3 2 1 2 3 3 4 4 4 4 4 4 3 3 4 3 3 4 4 4 5 5 4 3 3 5
0 3 3 3 3 3 2 1 1 2 1 8 4 3 3 8 11 9 1 2 6 6 6 7 6 6 9 10 7 6 5 4 4 6 6 8 8 8 7 4 4 8 6 6 5 5 6 6 8 9 9 8 8 9 9 9 8 8 8 8 9 7 4 4 5 6 6 5 6 5 4 5 4 3 3 3 4 4 4 4 5 5 5 4 3 4 4 4 4 4 4 5 5 6 3 4 6
1 3 2 3 4 1 2 4 1 2 1 8 3 3 2 4 8 9 1 4 5 3 5 6 8 8 8 6 7 5 4 4 4 5 5 5 3 3 3 7 8 5 5 5 6 7 7 8 9 10 11 8 8 9 9 11 8 8 9 9 10 9 7 8 7 6 6 5 7 6 6 6 4 5 4 3 4 4 4 4 5 5 4 4 5 4 5 5 5 5 5 4 4 6 5 5 5
1 1 1 2 1 3 2 2 3 1 6 5 1 3 2 4 8 7 8 5 4 3 5 9 12 10 9 8 4 4 5 4 4 4 5 4 4 5 5 6 6 7 5 7 7 6 7 8 8 10 8 8 8 9 9 10 9 9 8 9 10 10 11 9 11 11 10 10 8 8 6 5 5 5 4 4 4 4 5 5 5 5 6 5 6 5 4 5 5 5 5 5 5 4 4 5 5
1 3 3 1 5 4 3 2 1 4 5 1 1 2 1 9 13 12 12 12 9 7 9 11 10 10 8 7 6 4 4 4 4 5 4 5 8 9 8 7 5 7 9 8 9 8 8 7 9 11 10 9 10 9 10 10 9 10 10 9 9 9 10 11 11 11 10 10 9 8 8 8 6 6 6 6 5 6 6 7 7 7 6 5 6 5 4 4 5 5 5 4 4 4 4 5 6
3 3 3 3 0 1 3 5 2 4 5 3 0 1 4 5 11 14 18 19 12 8 7 9 9 9 7 6 6 4 4 4 5 5 5 6 8 8 8 9 9 8 8 9 8 8 8 8 9 11 12 10 8 9 10 10 10 9 8 9 9 9 10 10 10 11 10 9 9 10 10 10 9 9 8 8 7 6 6 6 6 6 5 5 5 5 5 4 4 6 5 6 5 4 5 6 6
7 2 4 5 5 2 2 3 3 3 4 2 3 1 6 2 5 2 9 8 7 6 7 5 6 6 5 5 6 5 5 5 4 5 6 8 9 8 9 10 9 8 9 9 8 9 8 10 10 12 10 9 9 10 9 10 9 9 8 9 9 9 10 10 10 9 10 10 8 9 8 7 8 8 9 7 7 7 7 6 6 6 6 6 6 6 6 5 5 5 5 6 5 4 5 6 5
2 2 4 3 5 4 3 3 2 2 2 3 2 6 4 7 6 15 9 6 9 7 8 4 6 5 4 5 5 5 5 5 4 5 6 7 7 6 7 7 9 9 10 9 10 10 10 11 10 12 13 11 11 10 10 11 10 9 8 10 10 10 9 8 7 6 7 8 10 10 10 9 8 8 7 8 8 7 7 7 5 6 6 6 6 6 6 6 6 7 6 6 6 3 7 7 5
2 3 3 3 1 2 1 1 1 1 3 8 1 7 8 8 10 14 9 5 8 3 3 3 6 6 5 6 6 5 6 5 5 7 7 7 5 6 8 8 8 8 8 11 12 12 13 11 10 11 9 7 10 11 11 10 9 9 10 10 9 9 10 11 11 11 10 9 9 9 10 10 8 8 8 6 7 4 5 6 6 7 6 6 6 6 7 6 6 7 7 7 7 5 7 6 5
3 1 4 0 1 2 3 3 2 2 2 7 1 6 6 3 9 5 6 7 8 6 5 4 6 5 5 8 7 7 7 7 6 6 6 6 7 8 8 8 9 11 12 10 11 9 9 10 11 13 11 12 11 10 11 10 11 11 10 10 10 12 12 11 10 11 9 9 9 8 7 8 9 8 7 6 6 6 6 6 7 7 7 6 7 7 7 7 7 6 6 6 6 7 8 6 5
1 1 0 1 1 0 2 3 2 2 4 5 4 3 5 6 10 5 11 6 10 11 9 7 7 4 8 8 8 8 6 5 6 8 8 8 9 9 9 10 8 8 8 9 8 8 8 7 8 10 14 14 13 11 9 8 8 9 9 11 12 11 10 10 9 8 8 10 11 10 10 9 7 8 8 8 8 8 8 7 7 7 7 7 7 7 7 7 7 7 6 7 6 7 8 7 5
1 1 1 0 1 2 4 6 2 4 6 3 7 2 7 7 7 6 12 9 8 9 8 8 8 7 7 7 7 7 6 7 8 8 9 9 10 10 10 10 10 11 10 9 8 7 9 10 9 10 8 6 6 9 9 10 10 9 10 8 8 9 9 9 9 10 10 11 11 10 10 9 11 8 9 9 9 9 9 9 8 8 8 7 7 7 7 7 7 7 8 7 7 7 8 9 7
1 0 3 1 0 2 1 1 3 3 3 3 3 8 6 7 7 6 14 12 9 8 9 8 7 8 7 7 8 6 6 7 8 8 9 9 10 9 8 8 8 6 5 6 8 12 12 8 10 11 13 12 11 12 10 11 9 10 9 11 11 9 10 9 8 10 10 10 9 10 10 9 8 10 9 10 10 10 9 9 9 8 9 9 9 8 7 8 7 8 7 8 8 8 9 7 8
7 11 9 9 7 2 1 9 1 1 2 5 3 13 3 6 3 9 12 13 6 7 7 9 8 8 8 7 7 7 6 7 8 7 7 8 7 7 6 5 5 5 7 9 10 7 8 11 12 11 10 11 12 11 11 11 9 9 11 11 10 7 8 7 9 9 10 10 10 10 9 8 11 9 9 10 10 8 8 8 9 8 9 9 9 9 9 8 9 9 8 6 8 9 9 8 8
Wind_Direction
332 344 313 322 114 83 59 2 178 309 67 251 318 288 245 344 203 92 118 73 179 251 210 55 98 90 187 212 195 192 202 127 204 130 215 231 326 171 146 130 133 134 155 172 182 194 162 167 166 158 150 148 135 141 126 139 52 345 331 334 340 335 330 331 335 336 337 336 336 336 337 336 334 332 332 331 331 333 337 334 334 331 335 334 332 332 332 334 332 330 324 321 318 315 315 313 309
324 341 317 312 235 72 284 117 97 340 37 10 248 132 254 301 62 173 180 193 205 206 199 127 67 91 59 86 147 128 275 234 167 163 241 233 66 139 157 146 147 149 165 175 180 174 164 180 164 160 157 147 150 138 145 132 76 3 338 341 335 333 329 333 334 334 333 334 335 337 336 334 334 333 332 333 334 336 339 335 333 334 336 333 335 335 335 330 328 327 324 323 322 319 315 313 313
347 4 356 24 33 71 34 44 282 5 77 280 276 209 318 85 203 215 218 223 249 186 157 78 141 48 43 11 338 137 247 5 128 192 105 137 121 235 192 157 156 154 164 174 174 173 169 185 169 165 160 159 147 150 142 138 138 355 353 335 326 328 329 327 329 331 331 333 335 334 336 337 335 335 334 333 336 338 339 334 333 336 335 336 338 338 333 333 332 328 328 325 321 323 321 315 313
97 63 92 58 303 27 64 23 87 130 151 210 301 284 199 181 229 215 255 249 228 171 287 198 134 221 118 65 223 52 271 319 200 152 138 204 204 172 178 164 158 148 156 165 177 172 173 193 171 171 171 163 161 152 151 157 167 118 358 331 328 322 323 323 329 330 329 331 333 337 338 338 338 335 334 335 338 341 338 335 336 336 339 341 340 337 335 333 330 329 330 330 330 330 331 331 324
54 335 103 89 106 355 94 198 160 109 223 207 186 273 255 214 188 192 244 232 246 215 65 166 72 281 184 238 204 156 245 239 291 189 182 206 172 157 166 159 144 148 168 174 173 175 183 191 178 173 174 174 165 159 165 171 174 176 293 329 317 317 317 321 325 327 327 329 336 338 339 339 337 336 336 339 342 343 339 336 336 340 341 343 341 339 336 335 336 335 338 339 338 336 335 334 330
56 62 4 85 88 185 49 341 304 228 223 155 227 248 227 222 175 189 195 224 242 231 221 168 182 215 282 221 182 191 201 117 194 173 153 204 161 160 162 152 147 157 173 168 177 174 186 195 181 178 178 177 174 175 179 175 190 187 209 309 314 309 306 318 324 325 328 333 336 341 340 340 338 337 338 343 347 345 342 336 340 341 343 345 341 338 339 342 343 349 344 341 340 340 338 334 334
19 40 357 26 2 56 174 181 237 220 270 167 216 226 202 204 205 142 194 158 261 312 190 211 101 62 8 281 325 247 188 204 111 222 169 163 152 159 155 155 147 165 162 167 173 177 186 195 183 181 183 179 179 184 184 190 190 197 228 286 306 304 313 316 317 323 328 333 338 340 343 340 338 340 344 348 349 348 345 342 342 344 344 345 339 341 347 350 357 350 348 346 346 343 339 337 336
60 107 279 96 243 42 229 223 249 159 271 168 226 190 207 196 164 164 185 139 234 168 213 260 217 113 245 111 203 275 334 290 254 153 131 132 149 160 157 151 150 171 172 167 170 178 188 193 182 182 182 183 185 185 191 193 202 200 249 259 277 297 307 312 315 319 328 335 338 341 342 340 340 346 350 351 349 347 346 343 342 344 345 343 343 345 351 354 357 355 347 348 345 344 343 341 341
359 84 4 68 282 25 2 239 254 221 278 288 265 245 215 178 174 154 177 215 13 214 237 205 214 123 267 349 224 272 296 324 74 131 138 141 153 161 156 158 157 175 185 167 171 175 184 193 185 186 187 192 192 193 196 202 201 220 230 241 270 295 302 305 307 318 326 335 339 342 340 341 345 349 351 349 346 347 348 346 349 346 347 346 346 347 353 357 2 351 347 348 344 347 344 342 345
30 83 270 160 127 253 342 293 86 241 223 244 219 228 160 171 193 191 168 254 217 129 241 134 169 213 291 249 302 301 248 141 124 108 154 157 152 154 160 170 168 164 177 180 175 174 181 193 186 189 192 196 198 201 202 199 212 219 225 247 259 280 291 297 307 312 327 334 339 338 338 339 342 346 346 346 345 350 351 349 350 346 347 345 342 345 353 354 358 350 346 345 344 349 346 343 352
26 5 148 78 10 248 233 270 262 309 282 306 288 244 203 155 160 205 181 209 141 167 353 122 320 242 38 264 209 249 276 145 142 169 186 167 151 157 167 176 173 163 169 180 180 176 182 192 191 191 197 200 206 203 200 206 212 214 229 239 257 264 277 294 304 313 324 333 336 336 335 335 339 342 343 344 343 348 349 346 341 339 338 338 340 345 351 355 353 352 345 344 345 348 349 348 352
59 129 26 130 201 178 235 208 265 271 292 328 259 302 140 164 140 169 235 194 200 254 170 157 226 142 217 305 286 313 125 182 185 170 175 164 162 168 162 173 167 176 166 173 170 179 185 194 201 197 197 205 208 206 205 206 210 220 226 236 241 257 269 285 303 313 322 332 334 333 331 333 337 340 344 344 342 344 348 345 342 339 339 340 343 348 351 3 349 355 347 348 336 347 348 349 352
129 125 86 99 236 165 227 248 263 277 329 276 197 238 119 155 192 199 208 230 166 139 284 212 100 128 247 213 250 297 179 215 213 176 168 164 171 153 145 159 175 164 168 159 163 183 189 196 197 203 207 207 207 205 202 204 210 215 222 227 238 253 265 280 296 306 318 328 331 331 328 331 333 339 347 343 345 341 346 347 346 341 341 349 350 352 352 358 1 354 355 349 341 352 348 353 351
121 177 127 229 64 199 189 244 278 280 277 249 263 299 343 184 247 186 132 193 213 172 234 192 126 143 257 355 301 227 227 214 213 191 163 161 131 135 149 159 164 163 166 158 171 178 186 194 192 205 220 217 209 205 202 202 206 215 222 227 231 248 256 269 279 293 309 318 322 321 323 327 330 333 337 340 343 339 342 350 346 342 341 349 349 348 352 353 4 4 1 351 345 345 351 352 351
178 165 85 118 289 37 251 174 231 181 261 211 266 29 339 273 130 109 162 204 253 213 304 141 180 118 248 165 275 235 206 203 187 178 159 120 119 133 143 157 162 164 164 170 167 162 190 185 196 201 209 211 205 206 204 207 206 214 218 218 229 235 247 249 258 273 285 298 304 307 311 319 324 326 324 335 337 333 335 348 342 340 342 345 342 347 348 346 1 6 8 3 354 350 351 355 353
157 85 88 172 253 183 271 207 287 123 262 213 276 58 350 282 257 263 253 171 258 278 137 215 212 206 221 172 226 231 201 160 167 153 141 122 86 116 134 156 161 180 179 176 176 193 183 183 192 196 205 209 201 207 206 206 216 209 213 222 223 235 239 241 243 253 265 274 288 295 299 308 317 320 321 335 323 329 331 337 339 336 343 344 344 349 350 346 347 357 8 10 7 358 354 355 352
60 80 265 53 259 156 257 178 154 277 250 274 287 349 188 272 274 240 351 47 227 245 247 224 197 100 209 206 234 231 157 127 123 130 129 132 122 135 153 154 178 197 209 211 195 201 200 192 199 189 211 206 206 204 207 203 215 214 211 215 224 231 236 238 239 244 256 271 279 285 289 304 307 314 322 315 325 321 323 327 335 341 345 344 347 352 353 346 342 346 355 6 7 5 358 355 350
67 196 132 246 202 167 217 198 186 187 195 277 274 217 164 286 318 259 31 298 265 282 261 278 296 263 211 273 21 112 133 134 148 143 166 166 163 171 183 210 178 202 209 220 237 224 203 213 201 201 202 214 203 199 204 202 214 214 208 223 234 238 244 239 243 242 247 258 278 280 278 299 312 315 319 320 324 319 336 336 337 342 345 344 350 351 348 346 344 341 343 354 359 359 357 349 338
153 117 129 233 180 239 160 206 202 128 253 223 242 241 173 235 154 284 246 282 300 274 260 234 255 271 287 336 129 130 140 145 159 166 169 177 184 187 194 196 203 212 224 229 234 220 211 207 198 195 203 200 195 195 193 203 202 206 214 221 230 238 236 243 238 244 248 250 260 259 275 298 304 323 318 328 326 346 348 340 342 345 345 344 349 348 345 345 345 342 339 342 353 356 355 339 330
231 131 237 241 211 235 218 197 208 199 141 277 272 273 163 247 161 4 207 254 309 237 245 267 236 245 238 212 203 166 156 166 172 172 180 187 192 191 194 199 209 214 215 207 211 212 205 203 203 194 191 191 177 190 188 192 197 206 219 224 227 234 238 238 236 239 242 244 245 252 275 291 317 322 339 346 357 7 347 344 347 349 345 339 347 344 345 343 348 343 337 337 351 351 343 335 331
277 137 208 230 213 191 260 190 218 208 155 223 206 352 300 273 226 160 227 321 258 246 224 208 221 229 227 197 191 185 176 176 191 187 187 196 202 203 199 197 195 204 211 213 212 211 205 204 196 202 189 176 175 184 181 194 207 210 229 232 231 230 239 239 242 246 248 242 240 242 268 292 324 348 357 349 360 2 0 346 348 349 340 336 339 340 342 339 346 344 339 339 348 345 344 338 330
111 212 192 192 103 253 256 207 212 173 213 147 256 183 239 335 345 227 178 219 257 204 235 218 234 234 210 190 199 183 188 189 193 195 200 197 198 208 217 236 259 254 257 210 217 211 206 200 193 196 180 182 180 179 186 201 182 214 232 239 232 243 217 228 220 223 234 230 226 220 246 3 343 4 354 353 349 9 359 351 338 337 350 335 335 336 341 345 346 347 342 341 341 339 341 341 337
230 311 244 215 203 203 255 178 223 165 160 184 217 227 1 177 265 235 202 219 244 186 193 202 218 232 217 188 171 191 195 198 197 202 200 205 211 214 211 211 205 216 209 220 213 208 200 195 196 180 185 186 190 185 186 180 194 212 217 223 200 229 203 177 229 234 219 191 203 203 123 326 2 2 347 347 346 356 357 351 335 333 347 337 332 335 343 342 345 347 346 342 343 344 345 351 349
161 238 353 282 187 211 179 215 164 190 168 229 212 33 242 250 293 238 227 239 241 244 219 214 220 239 178 171 190 193 197 198 204 204 199 202 201 205 203 203 213 215 196 223 214 203 191 196 191 176 188 179 191 183 177 187 208 206 214 208 200 208 161 194 233 223 148 219 184 185 133 154 62 7 343 338 338 351 357 338 323 334 355 340 326 330 347 345 348 351 350 349 360 357 350 0 357
208 262 223 264 144 244 236 203 185 199 230 249 345 302 248 207 234 348 261 251 244 246 238 248 262 234 166 193 194 203 205 210 213 214 219 229 217 217 214 220 204 191 213 217 207 193 198 189 176 186 181 185 181 170 176 192 193 197 207 197 209 213 175 207 226 134 198 131 151 176 175 85 55 50 341 330 321 5 351 347 338 333 347 350 341 339 351 344 351 351 352 355 3 6 356 7 4
206 223 209 293 265 272 233 230 241 219 262 175 308 253 274 262 289 265 255 266 250 238 231 237 226 232 214 206 198 198 206 209 212 209 213 212 206 203 223 214 193 195 211 200 189 199 189 177 178 185 182 181 176 166 181 176 195 192 205 202 219 200 210 212 214 156 197 145 197 203 185 133 130 145 290 332 12 355 358 343 346 344 348 347 353 344 335 342 351 356 359 1 9 13 12 358 4
164 240 231 252 259 312 232 211 248 212 233 150 203 276 278 310 79 282 232 248 285 192 233 230 215 228 225 219 213 208 203 209 206 210 214 213 214 207 219 210 200 210 194 204 197 193 187 172 190 186 182 178 166 176 176 187 179 193 199 208 212 194 208 206 198 162 169 176 201 190 158 138 144 143 97 358 25 9 4 357 346 336 0 352 341 333 330 343 349 16 1 355 4 13 14 357 7
353 219 309 279 289 259 242 262 266 122 281 182 198 267 277 282 139 238 255 90 113 185 232 236 225 231 229 227 220 217 215 217 209 190 207 201 211 206 210 200 209 202 194 208 198 189 175 187 185 187 182 174 171 181 179 183 188 196 200 188 202 207 185 189 182 152 173 192 214 177 133 137 138 139 98 56 51 22 8 348 337 9 352 342 338 331 346 348 352 358 16 15 7 29 26 15 356
276 41 304 287 330 316 217 221 224 155 254 158 178 296 277 176 224 237 253 342 293 242 250 236 233 235 235 232 227 221 219 213 200 205 214 211 207 199 206 205 197 198 212 199 190 178 186 186 182 188 177 175 174 180 185 190 190 194 186 195 202 193 190 178 179 186 196 196 197 153 140 148 160 140 143 86 66 70 23 3 7 3 352 334 336 343 0 3 7 9 18 12 30 33 37 17 4
356 52 192 323 335 299 283 240 97 150 240 139 170 296 256 244 232 258 277 324 325 286 265 248 240 241 240 230 227 233 234 214 214 215 213 210 205 200 207 205 199 196 198 196 170 188 188 180 181 170 175 176 184 180 180 180 193 191 193 192 186 180 189 182 198 160 187 167 151 122 137 164 166 178 114 64 77 66 41 23 17 2 349 338 345 6 20 13 9 14 6 30 32 41 38 20 26
178 258 90 230 348 269 294 163 149 146 192 152 143 224 278 261 264 254 278 258 229 255 260 259 249 244 236 228 228 231 235 214 219 219 217 212 206 201 205 200 195 198 181 177 188 188 178 181 171 174 178 181 178 182 180 187 186 183 184 185 182 183 183 179 187 117 147 145 117 99 125 168 211 132 127 100 65 79 61 6 18 345 339 358 22 7 27 24 21 15 13 37 42 42 41 39 34
352 12 282 322 170 279 294 157 157 164 338 143 111 272 256 279 285 289 295 340 181 238 260 261 256 250 241 231 227 233 236 225 233 233 217 213 198 199 198 199 190 189 186 186 187 173 180 182 177 174 177 176 183 182 184 183 179 184 180 180 178 174 165 163 141 141 135 125 110 106 129 146 5 339 67 96 76 78 114 22 355 359 3 28 34 18 30 23 4 13 19 43 63 37 46 38 32
337 175 270 284 173 262 333 349 225 57 113 288 182 243 325 296 271 310 57 68 161 249 270 265 257 253 250 238 229 232 244 248 238 233 225 208 210 198 197 193 188 190 186 176 180 176 182 184 181 175 178 181 180 181 177 178 170 174 177 177 175 163 167 150 138 134 121 118 126 106 123 114 41 353 19 64 97 71 109 354 344 37 26 50 42 35 38 10 16 15 19 33 69 84 64 59 46
298 320 229 208 202 296 299 299 178 281 168 238 243 232 246 255 279 279 295 325 327 284 268 264 257 252 244 244 240 234 232 234 233 229 224 206 206 200 196 194 188 188 189 182 180 176 184 181 183 183 181 178 173 174 175 172 172 163 161 167 163 164 163 143 146 133 122 132 128 116 128 117 80 19 31 55 87 47 103 40 335 49 61 51 50 45 38 14 13 24 35 25 47 78 70 76 66
241 204 289 308 317 217 241 316 279 147 352 226 279 254 264 267 274 274 273 281 267 266 263 265 263 255 250 244 243 241 237 232 238 228 216 203 198 198 193 193 186 186 188 185 180 182 170 177 176 183 173 172 168 163 158 146 130 101 103 133 135 129 102 110 141 110 129 116 112 134 114 99 115 52 46 76 95 59 66 37 39 31 81 75 53 45 35 24 20 4 49 31 37 63 93 81 91
178 173 188 198 302 300 253 247 285 172 237 267 236 243 262 272 278 279 270 243 237 253 265 271 267 263 257 247 244 240 233 239 241 228 207 198 195 185 189 185 184 182 182 178 180 174 174 172 176 176 177 170 158 153 145 141 139 145 141 95 116 139 140 125 80 131 129 112 122 110 101 101 75 84 69 82 88 90 82 44 35 27 65 84 60 48 33 29 12 6 20 47 53 61 56 61 79
132 142 165 254 259 277 288 274 262 197 294 240 245 253 265 274 272 278 281 268 251 255 264 267 266 262 255 249 245 241 235 235 245 221 200 199 192 185 179 175 174 175 179 176 175 182 178 176 167 183 180 167 159 159 165 157 154 151 129 179 183 184 164 150 130 133 113 125 117 106 106 103 90 83 72 98 99 94 88 78 62 30 74 92 89 89 76 44 16 354 351 26 64 78 40 12 26
230 264 276 289 199 275 247 245 354 313 119 289 284 289 271 266 274 275 281 270 263 252 256 262 264 260 255 247 249 243 241 270 201 200 204 197 187 178 170 172 163 168 196 180 183 187 182 173 178 179 166 173 176 174 173 175 175 183 169 181 165 160 157 158 156 179 139 123 110 109 114 107 88 90 104 101 102 117 110 81 70 86 93 98 104 99 61 53 40 35 16 40 17 87 62 353 321
137 210 244 321 274 249 283 270 335 306 69 268 310 309 286 281 277 276 269 263 266 250 231 249 258 270 261 249 246 254 252 240 212 222 201 196 187 179 174 179 184 185 179 187 188 173 178 181 187 173 176 175 183 179 169 181 180 168 151 169 159 147 216 182 153 157 138 119 95 99 107 105 107 81 94 122 113 113 120 108 105 103 100 113 91 60 63 50 40 36 32 113 65 28 84 28 16
191 173 260 248 243 5 308 287 352 284 186 284 319 303 288 282 272 269 267 254 256 265 246 247 242 252 261 252 239 239 237 236 221 207 202 193 186 181 178 182 187 178 173 180 180 184 182 188 186 179 179 180 177 184 181 186 163 133 87 128 123 117 168 126 85 99 103 100 97 69 79 103 106 106 103 108 105 115 127 123 119 102 91 90 115 103 78 74 50 30 36 54 101 60 21 24 14
297 184 194 258 263 239 178 263 314 293 334 323 303 285 287 321 343 333 308 258 274 281 303 276 260 245 259 286 279 232 234 217 220 212 210 183 181 190 189 188 172 177 182 184 183 186 187 189 187 182 178 181 181 178 177 155 118 95 85 71 81 74 60 83 107 101 128 136 120 115 125 100 110 111 104 111 127 122 117 125 118 111 101 82 95 102 97 107 94 97 69 91 78 135 87 40 13
320 233 192 203 173 201 300 327 356 10 340 337 23 341 299 293 291 267 283 337 317 281 317 288 281 275 275 264 257 265 253 222 205 201 196 193 192 188 188 175 182 190 189 191 185 187 180 184 182 180 176 177 178 179 169 156 163 154 145 143 156 159 160 168 183 182 184 174 178 175 103 114 124 106 99 106 118 122 116 122 118 114 102 88 83 104 121 94 71 70 34 121 91 70 138 84 43
64 272 145 153 157 146 64 342 40 327 282 281 50 94 281 283 288 285 288 321 301 309 281 276 285 280 268 252 259 257 245 235 232 219 203 191 199 185 192 189 191 191 200 182 179 184 182 179 181 180 179 180 177 174 168 164 162 169 174 178 177 182 179 210 191 171 168 171 141 144 146 96 121 126 102 110 109 113 115 113 113 110 106 101 96 97 83 91 88 76 71 75 77 91 80 100 98
243 228 130 123 111 137 178 99 154 235 262 298 90 133 220 304 293 239 278 306 306 318 316 312 305 285 272 264 255 253 246 222 200 204 201 202 193 188 190 196 192 199 186 170 180 178 182 182 179 184 183 180 180 169 175 177 172 176 178 182 184 185 190 191 182 169 151 140 137 151 137 131 111 129 131 110 117 122 121 111 113 109 107 101 103 92 107 106 91 67 76 97 85 86 105 128 122
222 198 152 125 134 159 137 113 186 241 8 290 350 227 305 263 269 273 338 312 318 313 288 288 300 315 298 278 259 253 247 230 205 198 201 198 200 205 201 194 201 185 170 181 183 187 185 180 180 180 184 180 180 174 175 185 179 179 181 180 189 204 184 166 143 139 148 150 138 152 142 156 138 124 134 134 124 128 125 127 119 115 113 112 113 104 90 89 96 100 86 82 94 84 106 143 123
243 136 90 76 73 70 112 109 95 333 55 271 187 206 209 282 281 307 333 249 285 265 272 275 269 283 295 292 282 264 266 250 238 227 215 213 210 206 205 190 172 200 189 186 186 172 177 172 179 181 190 185 178 176 180 185 184 176 178 183 185 176 148 134 149 155 159 161 157 170 165 163 167 146 141 136 125 131 128 125 124 125 129 131 120 128 123 105 105 105 118 125 128 113 116 127 134
105 106 79 16 34 47 21 69 96 58 330 260 226 235 137 295 271 251 222 210 197 259 306 294 299 311 305 270 258 274 266 250 229 224 221 218 220 211 180 188 197 185 180 179 183 184 180 178 182 186 193 183 176 179 179 187 185 181 183 183 181 172 168 156 153 165 161 166 174 180 178 179 173 170 157 148 142 147 133 133 132 134 135 135 135 136 137 135 133 125 125 115 114 124 129 116 105
127 126 137 27 355 4 42 344 33 115 270 261 245 197 161 182 287 280 238 280 252 211 263 283 288 287 283 293 285 255 255 250 237 216 223 202 186 194 184 205 190 193 180 186 190 185 184 185 181 188 190 186 183 181 180 187 184 190 191 183 182 178 168 171 176 177 182 182 179 178 180 168 182 173 167 155 159 161 142 139 140 136 139 142 144 147 144 139 134 122 116 114 111 106 109 104 105
78 75 35 72 272 26 300 10 285 207 205 284 9 138 5 243 241 268 284 270 259 224 238 257 265 272 276 281 288 263 251 244 221 218 200 195 195 193 199 202 188 193 196 190 189 186 185 184 184 186 196 189 188 181 186 187 188 192 190 187 187 176 180 181 182 183 183 181 178 174 177 183 175 173 187 173 183 174 158 152 155 150 150 153 147 140 140 134 126 118 116 107 107 110 110 110 106
114 153 142 90 53 64 253 275 232 304 292 263 246 346 260 263 281 245 249 263 264 262 236 237 244 249 261 277 296 283 260 236 228 212 209 204 200 202 200 196 197 196 196 192 188 186 187 186 188 192 198 189 185 185 190 190 198 196 190 187 184 178 188 186 189 185 186 185 179 183 184 182 180 183 176 186 183 178 172 171 161 155 150 145 142 136 135 131 124 121 116 111 103 96 95 97 102
201 141 134 180 136 157 241 222 237 217 210 283 285 49 233 137 240 234 223 253 279 266 264 253 250 246 257 275 284 287 278 256 229 224 213 209 209 200 197 198 198 196 191 190 189 191 184 191 189 196 195 193 189 193 189 195 198 196 193 191 185 186 188 191 194 191 182 182 185 183 187 180 179 180 182 181 182 181 173 166 161 147 149 145 138 136 132 124 118 110 106 107 96 98 98 101 97
212 169 87 88 238 128 208 209 167 257 332 341 237 213 198 203 280 299 268 264 270 272 270 288 277 282 311 312 287 267 256 250 233 233 239 236 219 208 203 203 201 194 193 192 193 189 191 196 193 197 197 191 193 191 197 196 199 193 192 190 193 190 193 191 192 191 192 187 181 183 185 185 185 175 182 176 189 178 169 162 151 147 148 146 143 140 137 132 132 124 120 117 111 113 110 101 108
226 101 207 212 149 107 54 6 356 75 55 249 188 315 283 296 301 272 310 355 298 345 309 279 268 282 321 286 271 261 251 245 234 226 227 230 227 220 211 204 201 199 195 198 196 193 194 189 191 198 202 194 197 199 198 197 196 191 199 197 191 191 190 191 193 193 190 187 184 187 183 186 178 181 178 179 173 174 159 156 153 153 155 151 145 144 140 138 138 132 134 131 126 126 112 115 118
80 187 240 256 170 99 136 236 329 59 190 266 66 226 285 13 287 316 340 341 300 306 289 292 286 284 283 262 261 248 237 231 238 243 239 232 226 219 214 213 206 201 200 200 203 197 196 194 193 195 197 199 204 199 199 197 195 198 197 198 197 195 195 197 193 190 185 181 188 186 178 176 188 178 169 168 164 167 167 164 159 160 157 154 152 149 145 143 136 132 135 131 137 129 117 110 112
137 195 259 120 233 185 325 90 292 287 279 274 297 273 269 207 257 325 291 273 281 286 302 326 306 265 245 260 267 263 261 266 250 239 233 231 224 223 216 214 213 212 209 207 200 191 196 202 202 200 202 204 199 199 202 202 199 200 198 199 196 198 200 197 195 188 180 187 188 186 185 183 167 170 166 166 170 173 173 172 168 163 162 158 153 151 147 144 142 136 140 135 143 134 126 123 130
38 349 353 299 124 203 126 206 190 118 275 24 290 7 242 204 227 206 266 261 250 273 292 281 272 257 242 245 253 255 247 235 237 233 231 227 227 222 215 211 208 207 205 205 197 191 204 205 197 207 212 203 198 203 199 201 202 199 202 200 206 201 197 194 189 182 188 194 189 184 181 178 183 170 177 173 174 177 175 172 174 166 162 158 155 154 152 148 145 147 149 145 152 141 133 135 136
70 222 299 352 208 214 115 284 154 183 190 191 262 302 260 254 224 218 253 258 244 232 252 267 271 269 255 245 244 247 244 240 235 232 231 229 230 227 225 221 219 216 214 202 198 201 205 196 205 205 201 200 203 205 197 207 195 204 198 201 201 195 197 191 188 190 192 194 188 186 187 182 160 185 173 177 179 180 179 175 170 172 166 164 160 159 160 154 152 153 157 153 153 149 142 142 138
174 171 203 178 138 154 187 265 30 103 137 245 162 263 239 266 235 220 244 256 246 242 226 261 269 265 267 267 257 243 256 249 242 242 236 238 236 231 230 228 224 207 212 210 210 204 205 204 208 204 204 207 206 205 203 204 200 199 202 203 201 195 190 187 190 192 195 193 188 188 181 168 184 181 178 180 179 178 179 175 173 173 172 168 166 164 164 162 160 158 159 161 158 152 147 146 143